Location: Ceske Budejovice
(48.9830°N, 14.4670°E)
Time: 20:04:05
(UTC+01:00)

ISS - Pass Details

Date: 26 November 2019
Orbit: 411 x 421 km, 51.6° (Epoch: 10 December)

Event Time Altitude Azimuth Distance (km) Brightness Sun altitude
Rises 18:24:45 0° 252° (WSW) 2,352 1.5 -21.4°
Reaches altitude 10° 18:26:50 10° 253° (WSW) 1,493 0.2 -21.7°
Enters shadow 18:29:39 60° 264° (W) 486 -3.3 -22.2°
